Weather History for Casper, WY

Change the Weather History Date:

Saturday, March 16, 2013

  Actual Average Record
Temperature  
Mean Temperature 40 °F 35 °F  
Max Temperature 55 °F 48 °F 71 °F (1994)
Min Temperature 24 °F 23 °F -8 °F (2002)
Degree Days  
Heating Degree Days 25 30  
Month to date heating degree days 466 510  
Since 1 July heating degree days 5516 5958  
Cooling Degree Days 0 0  
Month to date cooling degree days 0 0  
Year to date cooling degree days 0 0  
Moisture  
Dew Point 24 °F    
Average Humidity 60    
Maximum Humidity 88    
Minimum Humidity 31    
Precipitation  
Precipitation 0.00 in 0.03 in 0.19 in (1987)
Month to date precipitation 0.22 0.38  
Year to date precipitation 0.99 1.46  
Snow  
Snow 0.00 in 0.40 in - ()
Month to date snowfall 3.4 5.2  
Since 1 July snowfall 36.1 54.6  
Snow Depth 0.00 in    
Sea Level Pressure  
Sea Level Pressure 29.86 in    
Wind  
Wind Speed 7 mph (NE)    
Max Wind Speed 16 mph    
Max Gust Speed 20 mph    
Visibility 10 miles    
Events      
T = Trace of Precipitation, MM = Missing Value Source: NWS Daily Summary

Daily Weather History Graph

Daily Weather History Graph

Search for Another Location

Airport:

Trip Planner

Search our weather history database for the weather conditions in past years. The results will help you decide how hot, cold, wet, or windy it might be!

Date:

Astronomy

Mar. 16, 2013 Rise Set
Actual Time 7:15 AM MDT 7:13 PM MDT
Civil Twilight 6:47 AM MDT 7:42 PM MDT
Nautical Twilight 6:14 AM MDT 8:15 PM MDT
Astronomical Twilight 5:41 AM MDT 8:48 PM MDT
Moon 9:39 AM MDT (3/16) No Moon Set
Length of Visible Light 12h 54m
Length of Day
11h 58m
Waxing Crescent, 23% of the Moon is Illuminated
Mar 16
Waxing Crescent
Mar 19
First Quarter
Mar 27
Full
Apr 2
Last Quarter
Apr 10
New

Hourly Weather History & Observations

Time (MDT) Temp. Windchill Dew Point Humidity Pressure Visibility Wind Dir Wind Speed Gust Speed Precip Events Conditions
12:53 AM 37.9 °F 30.9 °F 23.0 °F 55% 29.94 in 10.0 mi East 10.4 mph - N/A   Partly Cloudy
1:53 AM 35.1 °F 31.0 °F 24.1 °F 64% 29.96 in 10.0 mi NE 4.6 mph - N/A   Mostly Cloudy
2:53 AM 35.1 °F 28.6 °F 23.0 °F 61% 29.93 in 10.0 mi NE 8.1 mph - N/A   Clear
3:53 AM 30.9 °F 22.8 °F 21.9 °F 69% 29.92 in 10.0 mi NE 9.2 mph - N/A   Clear
4:53 AM 28.9 °F 23.9 °F 21.9 °F 75% 29.93 in 10.0 mi East 4.6 mph - N/A   Clear
5:53 AM 26.1 °F 18.4 °F 21.0 °F 81% 29.94 in 10.0 mi NNE 6.9 mph - N/A   Clear
6:53 AM 26.1 °F 19.4 °F 21.9 °F 84% 29.93 in 10.0 mi ENE 5.8 mph - N/A   Clear
7:53 AM 25.0 °F - 21.0 °F 85% 29.94 in 10.0 mi Calm Calm - N/A   Clear
8:53 AM 30.9 °F - 26.1 °F 82% 29.93 in 10.0 mi Calm Calm - N/A   Clear
9:53 AM 35.1 °F 31.0 °F 28.0 °F 76% 29.90 in 10.0 mi East 4.6 mph - N/A   Clear
10:53 AM 42.1 °F 38.4 °F 30.0 °F 62% 29.88 in 10.0 mi WNW 5.8 mph - N/A   Clear
11:53 AM 44.1 °F 42.5 °F 28.0 °F 53% 29.86 in 10.0 mi West 3.5 mph - N/A   Clear
12:53 PM 46.9 °F - 25.0 °F 42% 29.84 in 10.0 mi West 10.4 mph - N/A   Clear
1:53 PM 50.0 °F - 26.1 °F 39% 29.82 in 10.0 mi NNW 8.1 mph - N/A   Clear
2:53 PM 52.0 °F - 25.0 °F 35% 29.79 in 10.0 mi NNW 10.4 mph - N/A   Clear
3:53 PM 51.1 °F - 23.0 °F 33% 29.78 in 10.0 mi Variable 5.8 mph - N/A   Partly Cloudy
4:53 PM 52.0 °F - 24.1 °F 34% 29.78 in 10.0 mi North 10.4 mph - N/A   Partly Cloudy
5:53 PM 50.0 °F - 21.9 °F 33% 29.81 in 10.0 mi North 10.4 mph - N/A   Clear
6:53 PM 46.9 °F - 18.0 °F 32% 29.81 in 10.0 mi North 8.1 mph - N/A   Clear
7:53 PM 39.9 °F 33.4 °F 21.0 °F 47% 29.85 in 10.0 mi NNE 10.4 mph - N/A   Clear
8:53 PM 37.9 °F 30.5 °F 28.0 °F 68% 29.85 in 10.0 mi East 11.5 mph - N/A   Clear
9:53 PM 35.1 °F 27.4 °F 28.0 °F 76% 29.83 in 10.0 mi East 10.4 mph - N/A   Clear
10:53 PM 32.0 °F 22.5 °F 28.0 °F 85% 29.78 in 9.0 mi East 12.7 mph - N/A   Clear
11:53 PM 30.0 °F 21.7 °F 27.0 °F 88% 29.76 in 7.0 mi East 9.2 mph - N/A   Clear